www.pogodaiklimat.ru

Погода и климат >> Архив погоды >> Чехия >> Острава


ПОГОДА в Остраве

  • Прогноз погоды в Остраве
  • Монитор погоды в Остраве

АРХИВ ПОГОДЫ в Остраве

Время (UTC), дата Ветер
(напр.,м/с)
 
Видим.   Явления Облачность Т
(С)
Тd
(С)
f
(%)
Тe
(С)
Тes
(С)
Комфортность P
(гПа)
Po
(гПа)
Тmin
(С)
Tmax
(С)
R
(мм)
R24
(мм)
S
(см)
16 9.06 СВ 4 40 км 3/1 1500 м
[Cu med, cong Ci fib]
+25.2 +12.2 44 +27 +29 жарко 1021.0 991.3
17 9.06 СВ 4 40 км 8/8 1500 м
[Sc Ci fib]
+24.3 +11.5 45 +26 +26 жарко 1020.8 991.0
18 9.06 В 3 40 км 5/5 1500 м
[Sc Ci fib]
+23.1 +11.8 49 +26 +26 жарко 1020.6 990.7 +26.0
19 9.06 СВ 2 30 км 6/5 1500 м
[Sc Ci fib]
+22.1 +12.0 53 +24 +24 комфорт 1020.8 990.8
20 9.06 С 3 30 км 4/1 1500 м
[Sc Ci fib]
+20.7 +12.5 59 +23 +23 комфорт 1020.8 990.6
21 9.06 СВ 2 30 км 5/0
[Ci sp]
+17.9 +13.1 73 +18 +18 1020.9 990.5
22 9.06 30 км 3/0
[Ci fib]
+17.3 +13.7 79 1020.6 990.1
23 9.06 25 км 3/0
[Ci fib]
+16.1 +14.1 88 1020.6 990.0
00 10.06 ЮЗ 1 20 км 1/0
[Ci fib]
+15.5 +14.1 91 +16 +16 1020.3 989.6
01 10.06 20 км 1/0
[Ci fib]
+15.0 +14.3 96 1019.9 989.2
02 10.06 З 1 20 км 1/0
[Ci fib]
+14.1 +13.5 96 +14 +14 1019.7 988.9
03 10.06 ЮЗ 2 10 км 1/0
[Ci fib]
+14.3 +14.0 98 +14 +14 1019.5 988.7
04 10.06 12 км 1/1 400 м
[Cu hum Ci fib]
+15.7 +15.0 96 1019.1 988.5
05 10.06 12 км 1/0
[Ci fib]
+17.7 +14.8 83 1018.5 988.1
06 10.06 нст 1 15 км 4/1 480 м
[Cu hum Ci fib]
+19.9 +16.0 78 +23 +29 комфорт 1018.2 988.1 +13.8
07 10.06 25 км 4/1 720 м
[Cu hum Ci fib]
+23.0 +16.8 68 1017.4 987.6
08 10.06 25 км 4/3 840 м
[Cu med, cong Ci fib]
+25.0 +17.3 62 1016.5 987.0
09 10.06 Ю 3 30 км 5/5 1230 м
[Cu med, cong Ci fib]
+27.6 +16.6 51 +31 +38 душно 1015.8 986.5
10 10.06 Ю 4 30 км 5/5 1500 м
[Cu med, cong Ac cuf Ci fib]
+28.5 +16.3 48 +32 +38 душно 1015.4 986.2
11 10.06 Ю 4 30 км 5/5 1500 м
[Cu med, cong Ac cuf Ci fib]
+28.7 +15.5 45 +32 +38 душно 1015.0 985.8
12 10.06 ЮЗ 5 30 км 5/5 1500 м
[Cu med, cong Ac cuf Ci fib]
+29.1 +16.2 46 +32 +37 душно 1014.5 985.4
13 10.06 ЮЗ 5 30 км 5/5 1500 м
[Cu med, cong Ac cuf Ci sp]
+30.0 +16.6 44 +33 +37 душно 1013.8 984.8
14 10.06 ЮЗ 5 30 км 4/1 1500 м
[Cu hum Ci fib]
+29.7 +15.4 42 +32 +37 душно 1013.3 984.3
15 10.06 ЮЗ 5 30 км 3/1 1500 м
[Cu hum Ci fib]
+29.6 +16.7 46 +33 +36 душно 1012.8 983.8
16 10.06 ЮЗ 6 30 км 3/1 1500 м
[Cu hum Ci fib]
+28.7 +16.2 47 +32 +33 душно 1012.3 983.2
17 10.06 ЮЗ 4 30 км 3/0
[Ci fib]
+26.6 +18.0 59 +31 +32 душно 1012.5 983.2
18 10.06 ЮЗ 2 30 км 3/0
[Ci fib]
+24.8 +17.8 65 +29 +29 душно 1012.3 982.9 +30.3
19 10.06 В 1 30 км 3/0
[Ci sp]
+24.3 +16.6 62 +28 +28 душно 1012.3 982.8
20 10.06 20 км 1/0
[Ci sp]
+22.2 +17.0 72 1013.3 983.6
21 10.06 нст 1 20 км 1/0
[Ci fib]
+19.6 +16.9 84 +23 +23 комфорт 1013.3 983.3
22 10.06 20 км 1/0
[Ci fib]
+20.2 +17.2 83 1013.2 983.3
23 10.06 20 км 1/0
[Ci fib]
+19.0 +17.4 90 1012.9 982.9
00 11.06 нст 1 20 км 1/0
[Ci fib]
+17.8 +16.3 91 +19 +19 1013.1 982.9
01 11.06 20 км ясно +18.6 +16.9 90 1013.1 983.0
02 11.06 12 км ясно +17.2 +16.4 95 1013.1 982.9
03 11.06 нст 2 20 км ясно +17.4 +16.1 92 +18 +18 1013.1 982.9
04 11.06 25 км 1/0
[Ci fib]
+17.5 +16.8 96 1013.6 983.4
05 11.06 23 км 1/0
[Ci fib]
+19.7 +17.0 84 1013.3 983.3
06 11.06 нст 1 25 км 1/0
[Ci fib]
+24.5 +18.3 68 +29 +35 душно 1012.9 983.4 +16.9
07 11.06 30 км 1/0
[Ci fib]
+26.5 +18.6 62 1012.8 983.5
08 11.06 30 км 1/1 1500 м
[Cu hum]
+28.6 +14.3 42 1012.4 983.3
09 11.06 нст 2 30 км 1/1 1500 м
[Cu hum]
+30.0 +14.5 39 +32 +46 жарко 1012.2 983.2
10 11.06 Ю 3 35 км 1/1 1500 м
[Cu hum]
+30.5 +14.6 38 +33 +46 душно 1011.6 982.7
11 11.06 35 км 1/1 2000 м
[Cu hum Ci fib]
+31.6 +13.5 33 1011.0 982.2
12 11.06 Ю 5 35 км 1/1 2000 м
[Cu hum Ci fib]
+31.9 +14.4 35 +34 +42 душно 1010.9 982.1
13 11.06 ЮЗ 7 35 км 1/1 2000 м
[Cu hum]
+31.8 +13.4 33 +33 +37 жарко 1010.6 981.8
14 11.06 ЮЗ 6 35 км 3/1 1500 м
[Cb cap Ac cuf Ci ing]
+31.7 +16.4 40 +35 +38 очень
душно
1010.3 981.6
15 11.06 ЮЗ 7 35 км 5/1 1500 м
[Cb cap Ac cuf Ci ing]
+30.5 +16.8 44 +34 +35 очень
душно
1010.2 981.4
16 11.06 ЮЗ 6 35 км 4/1 1500 м
[Cb cap Ac cuf Ci ing]
+30.0 +17.4 47 +34 +35 очень
душно
1010.3 981.4
17 11.06 ЮЗ 6 25 км гроза без осадков 6/6 1080 м
[Cb cap Ac trans Ci fib]
+29.5 +17.3 48 +34 +34 очень
душно
1010.9 981.9
18 11.06 нст 1 25 км в посл. час гроза 8/3 1200 м
[Cu med, cong Ac trans Ci sp]
+27.4 +17.3 54 +31 +32 душно 1011.5 982.3 +32.5
19 11.06 ЮЗ 4 30 км 4/0
[Ac trans Ci sp]
+25.8 +16.6 57 +29 +29 душно 1011.9 982.6
20 11.06 20 км 1/0
[Ci sp]
+24.7 +16.5 60 1012.3 982.8
21 11.06 нст 1 20 км 1/0
[Ci sp]
+22.4 +17.0 72 +27 +27 душно 1012.8 983.1
22 11.06 20 км 1/0
[Ci fib]
+21.6 +16.5 73 1012.9 983.1
23 11.06 ЮЗ 3 20 км 1/0
[Ci fib]
+20.3 +16.3 78 +24 +24 комфорт 1012.6 982.7
00 12.06 нст 1 20 км 1/0
[Ci fib]
+19.5 +17.0 85 +23 +23 комфорт 1012.3 982.3
01 12.06 ЮВ 2 20 км 1/0
[Ci sp]
+19.2 +17.7 91 +22 +22 комфорт 1012.4 982.4
02 12.06 25 км 1/0
[Ci sp]
+17.9 +17.5 98 1012.3 982.2
03 12.06 нст 1 30 км 1/0
[Ci fib]
+17.6 +17.2 98 +19 +19 1012.1 981.9
04 12.06 30 км 1/0
[Ci fib]
+18.9 +18.4 97 1012.0 982.0
05 12.06 28 км 4/0
[Ci fib]
+21.9 +17.8 78 1012.0 982.3
06 12.06 нст 1 30 км 1/0
[Ci fib]
+23.8 +17.1 66 +28 +34 душно 1012.0 982.5 +16.9
07 12.06 30 км 3/0
[Ci fib]
+25.9 +18.0 62 1012.1 982.8
08 12.06 Ю 4 35 км 3/0
[Ci fib]
+28.1 +15.9 47 +31 +39 душно 1011.7 982.6
09 12.06 Ю 5 35 км 3/1 1500 м
[Cu hum Ci fib]
+28.7 +15.7 45 +32 +39 душно 1011.5 982.4
10 12.06 ЮЗ 8
{11}
35 км 3/1 1500 м
[Cu hum Ci fib]
+29.2 +15.9 45 +32 +35 душно 1011.5 982.5
11 12.06 Ю 6
{11}
35 км 3/1 1500 м
[Cu hum Ci fib]
+29.6 +16.4 45 +33 +39 душно 1011.3 982.3
12 12.06 Ю 6
{11}
35 км 3/1 1500 м
[Cu hum Ci fib]
+30.0 +16.6 44 +33 +39 душно 1010.9 982.0
13 12.06 Ю 6
{11}
35 км 3/1 1500 м
[Cu hum Ci fib]
+30.1 +16.2 43 +33 +38 душно 1010.7 981.8
14 12.06 Ю 6 30 км 1/1 1500 м
[Cu hum]
+30.3 +14.8 39 +32 +36 жарко 1010.5 981.6
15 12.06 Ю 5
{11}
30 км 1/1 1500 м
[Cu hum]
+30.1 +15.8 42 +33 +36 душно 1010.1 981.2
16 12.06 Ю 5 30 км 1/1 1500 м
[Cu hum]
+29.5 +16.5 45 +33 +35 душно 1009.9 981.0
17 12.06 Ю 5 30 км 1/1 1500 м
[Cu hum]
+28.6 +16.2 47 +32 +33 душно 1010.0 981.0
18 12.06 Ю 3
{11}
30 км 1/0
[Ci fib]
+27.8 +16.4 50 +31 +32 душно 1010.0 980.9 +30.6
19 12.06 30 км 1/0
[Ci fib]
+26.4 +15.8 52 1010.2 981.0
20 12.06 СЗ 2 30 км 1/0
[Ci fib]
+23.5 +16.7 66 +27 +27 душно 1011.1 981.6
21 12.06 нст 2 30 км 3/0
[Ac trans Ci fib]
+23.5 +16.5 65 +27 +27 душно 1011.6 982.0
22 12.06 ЮЗ 4 30 км 5/0
[Ac trans Ci fib]
+23.1 +16.6 67 +28 +28 душно 1012.0 982.4
23 12.06 25 км 4/0
[Ac trans]
+22.3 +16.8 71 1012.0 982.3
00 13.06 ЮЗ 3 25 км 3/0
[Ac trans]
+21.3 +16.9 76 +25 +25 комфорт 1012.1 982.3
01 13.06 З 3 25 км 1/0
[Ac trans Ci fib]
+20.0 +16.7 81 +23 +23 комфорт 1012.2 982.3
02 13.06 30 км 3/0
[Ac trans Ci fib]
+20.7 +16.4 76 1012.2 982.3
03 13.06 нст 1 30 км 4/0
[Ac trans Ci fib]
+19.8 +16.4 81 +23 +23 комфорт 1012.2 982.3
04 13.06 СВ 2 30 км 3/0
[Ac trans Ci fib]
+21.5 +17.3 77 +26 +26 душно 1012.3 982.5
05 13.06 30 км 1/0
[Ci fib]
+23.8 +18.2 71 1012.2 982.7
06 13.06 нст 2 30 км 1/0
[Ci fib]
+25.0 +17.9 65 +29 +35 душно 1012.6 983.2 +19.8
07 13.06 С 3 30 км 1/0
[Ci fib]
+26.7 +17.0 55 +30 +38 душно 1012.7 983.4
08 13.06 30 км 1/1 1300 м
[Cu hum]
+28.1 +16.8 50 1012.8 983.7
09 13.06 Ю 3 30 км 1/1 1500 м
[Cu hum]
+29.3 +15.7 44 +32 +44 душно 1012.5 983.5
10 13.06 ЮЗ 4 30 км 1/1 1500 м
[Cu hum]
+30.5 +16.6 43 +34 +44 очень
душно
1012.2 983.3
11 13.06 ЮЗ 4 30 км 1/1 1500 м
[Cu med, cong]
+31.0 +16.2 41 +34 +45 душно 1011.9 983.0
12 13.06 Ю 5 30 км 4/1 2000 м
[Cu med, cong Ac cuf]
+31.9 +15.1 36 +34 +40 душно 1011.5 982.7
13 13.06 ЮЗ 5 30 км 4/3 1500 м
[Cu med, cong Ac cuf Ci ing]
+32.4 +15.6 36 +35 +40 душно 1011.2 982.5
14 13.06 ЮЗ 6 30 км 3/1 2000 м
[Cu med, cong Ac cuf Ci ing]
+32.0 +14.2 34 +34 +37 душно 1011.0 982.2
15 13.06 ЮЗ 6 25 км 4/1 1500 м
[Cb calv Ac cuf Ci ing]
+32.0 +15.4 37 +34 +37 душно 1010.6 981.9
16 13.06 З 4 25 км 5/1 1500 м
[Cb cap Ac cuf Ci ing]
+27.8 +17.5 53 +32 +34 душно 1010.8 981.7
17 13.06 С 6 25 км 9/1 1500 м
[Cb cap Ac As Cs]
+26.7 +19.6 65 +32 +33 очень
душно
1011.3 982.1
18 13.06 С 4 25 км 9/1 1500 м
[Cb cap Ac As Cs]
+23.5 +19.0 76 +28 +28 душно 1013.0 983.4 +32.7
19 13.06 С 5 25 км 9/1 1500 м
[Cb cap Ac As Cs]
+22.0 +18.5 81 +27 +27 душно 1013.8 984.1
20 13.06 Ю 3 8000 м гроза, ливневой дождь 10/5 600 м
[Cb cap Ac As]
+21.2 +20.0 93 +26 +26 душно 1015.9 986.0
21 13.06 нст 1 12 км в посл. час гроза {ливн. осадки} 9/1 1200 м
[Cb cap Ac As]
+20.6 +20.2 98 +26 +26 душно 1015.6 985.7
22 13.06 С 3 12 км 9/8 600 м
[Cb cap Ac As]
+20.3 +19.9 98 +25 +25 комфорт 1015.4 985.5
23 13.06 12 км 6/4 1500 м
[Sc Ac trans Ci fib]
+20.0 +18.9 93 1016.2 986.2
00 14.06 нст 1 12 км {гроза, ливн. осадки} 5/3 1500 м
[Sc Ac trans Ci sp]
+19.4 +18.9 97 +23 +23 комфорт 1016.2 986.1 1
01 14.06 СВ 2 10 км 9/9 480 м
[Sc]
+19.2 +18.6 96 +22 +22 комфорт 1016.4 986.3
02 14.06 С 2 10 км 10/10 400 м
[St]
+19.4 +18.5 95 +22 +22 комфорт 1017.2 987.1
03 14.06 СВ 3 12 км 10/10 400 м
[St]
+19.3 +18.0 92 +22 +22 комфорт 1017.2 987.1
04 14.06 В 3 12 км 8/6 450 м
[Sc Ac lent Ci sp]
+19.3 +18.2 93 +22 +22 комфорт 1017.9 987.8
05 14.06 12 км 9/9 450 м
[Sc]
+19.8 +17.9 89 1018.3 988.2
06 14.06 нст 2 12 км 6/6 450 м
[Sc]
+20.1 +18.0 88 +24 +26 комфорт 1018.8 988.7 +19.0 1
07 14.06 СВ 4 15 км 8/8 500 м
[Cu hum]
+22.0 +18.1 79 +27 +28 душно 1019.3 989.4
08 14.06 С 4 10 км 9/9 500 м
[Cu hum]
+22.8 +19.3 81 +29 +30 очень
душно
1019.5 989.7
09 14.06 СВ 4 10 км 8/8 540 м
[Cu hum]
+24.2 +18.4 70 +29 +31 душно 1019.5 989.8
10 14.06 СВ 4 9000 м дымка 9/9 630 м
[Cu Sc]
+24.6 +18.8 70 +29 +31 душно 1019.7 990.0
11 14.06 СВ 4 8000 м мгла 9/9 750 м
[Cu Sc]
+26.2 +19.0 65 +31 +33 очень
душно
1019.0 989.5
12 14.06 С 3 9000 м мгла 3/3 800 м
[Cu hum]
+26.6 +19.0 63 +32 +42 очень
душно
1018.6 989.2
13 14.06 С 3 12 км 1/1 900 м
[Cu hum]
+27.4 +19.2 61 +33 +44 очень
душно
1017.8 988.5
14 14.06 С 3 15 км 1/1 1050 м
[Cu hum]
+28.3 +20.0 61 +35 +43 очень
душно
1017.4 988.2
15 14.06 С 3 15 км 1/1 1050 м
[Cu hum]
+29.3 +20.0 57 +36 +41 очень
душно
1017.0 987.9
16 14.06 СВ 3 12 км 1/1 1050 м
[Cu hum]
+29.0 +20.0 58 +35 +38 очень
душно
1016.9 987.8
17 14.06 СВ 3 12 км 1/1 1050 м
[Cu med, cong Ci fib]
+28.4 +20.1 61 +35 +36 очень
душно
1016.5 987.3
18 14.06 СВ 2 10 км 1/0
[Ci fib]
+27.4 +20.2 65 +34 +34 очень
душно
1016.1 986.8 +29.5
19 14.06 9000 м дымка 1/0
[Ci fib]
+25.5 +20.8 75 1016.6 987.2
20 14.06 9000 м дымка 3/3 1500 м
[Sc]
+24.3 +21.1 82 1017.3 987.7
21 14.06 нст 1 8000 м дымка 1/1 1500 м
[Sc]
+22.7 +21.9 95 +30 +30 очень
душно
1017.1 987.4
22 14.06 штиль 0 7000 м дымка 1/0
[Ci fib]
+21.9 +21.5 98 +28 +28 душно 1016.6 986.8
23 14.06 7000 м дымка 3/0
[Ci fib]
+20.3 +19.9 98 1016.3 986.3
00 15.06 ЮЗ 2 4000 м дымка 4/0
[Ci fib]
+19.3 +19.0 98 +22 +22 комфорт 1016.0 985.9
01 15.06 штиль 0 3000 м дымка 5/0
[Ci sp]
+19.6 +19.3 98 +22 +22 комфорт 1015.5 985.5
02 15.06 1200 м дымка 6/4 90 м
[St Ci sp]
+18.0 +17.7 98 1015.5 985.3
03 15.06 нст 1 100 м туман ?/? +17.7 +17.7 100 +19 +19 1015.4 985.2
04 15.06 100 м туман ?/? +18.6 +18.6 100 1015.1 985.0
05 15.06 200 м туман ?/? +19.1 +18.8 98 1015.1 985.0
06 15.06 нст 1 1000 м в посл. час туман 8/8 60 м
[St Ci fib]
+20.6 +20.2 98 +26 +27 душно 1014.5 984.6 +17.4
07 15.06 12 км 4/0
[Ci sp]
+25.4 +20.8 76 1013.6 984.2
08 15.06 18 км 5/0
[Ci sp]
+27.9 +20.6 65 1013.2 984.1
09 15.06 Ю 5 25 км 5/0
[Ci sp]
+30.9 +14.4 37 +33 +40 душно 1012.9 984.0
10 15.06 ЮЗ 6 25 км 5/0
[Ci sp]
+30.9 +14.9 38 +33 +39 душно 1012.7 983.8
11 15.06 Ю 5 25 км 5/0
[Ci sp]
+31.9 +14.4 35 +34 +42 душно 1012.1 983.3
12 15.06 Ю 5 25 км 5/0
[Ci sp]
+31.9 +14.1 34 +33 +41 жарко 1011.7 982.9
13 15.06 ЮЗ 5 30 км 5/0
[Ci sp]
+32.0 +15.2 36 +34 +41 душно 1011.2 982.4
14 15.06 ЮЗ 6 30 км 4/0
[Ci fib]
+31.3 +13.9 35 +33 +37 жарко 1011.4 982.6
15 15.06 ЮЗ 7 30 км 4/0
[Ci sp]
+32.0 +15.6 37 +34 +36 душно 1010.9 982.2
16 15.06 Ю 5 30 км 4/0
[Ci fib]
+31.2 +16.2 40 +34 +36 душно 1010.5 981.7
17 15.06 ЮЗ 5 25 км 4/0
[Ci fib]
+30.4 +16.0 42 +33 +34 душно 1010.3 981.4
18 15.06 ЮЗ 2 25 км 3/0
[Ci ing]
+27.9 +15.4 47 +31 +31 душно 1010.6 981.5 +33.2
19 15.06 З 3 25 км 3/0
[Ci ing]
+24.5 +15.5 57 +27 +27 жарко 1011.2 981.7
20 15.06 ЮЗ 2 20 км зарница 4/0
[Ci ing]
+23.7 +15.8 61 +27 +27 жарко 1012.0 982.4
21 15.06 нст 1 20 км зарница 4/0
[Ci ing]
+24.1 +15.3 58 +27 +27 жарко 1012.4 982.9
22 15.06 С 4 20 км зарница 6/5 1500 м
[Sc Ci ing]
+22.7 +14.1 58 +26 +26 жарко 1013.8 984.1
23 15.06 ЮВ 3 20 км зарница 5/0
[Ci ing]
+21.6 +13.4 60 +24 +24 комфорт 1014.2 984.3
00 16.06 С 2 20 км зарница 5/4 1300 м
[Cb calv Ac trans Ci sp]
+20.4 +13.8 66 +23 +23 комфорт 1014.6 984.6
01 16.06 В 2 20 км зарница 4/0
[Ci sp]
+19.8 +14.0 69 +22 +22 комфорт 1014.3 984.3
02 16.06 20 км 4/0
[Ac trans]
+18.2 +14.5 79 1014.0 983.8
03 16.06 С 2 30 км 6/1 1500 м
[Sc Ac trans Ci sp]
+17.7 +15.0 84 +18 +18 1014.5 984.3
04 16.06 СВ 2 30 км 5/1 1500 м
[Cu med, cong Ac trans Ci fib]
+19.5 +15.1 76 +22 +22 комфорт 1014.9 984.8
05 16.06 СВ 3 30 км 8/1 1500 м
[Sc Ac trans]
+20.4 +15.5 73 +23 +24 комфорт 1015.0 985.0
06 16.06 С 4 30 км 6/1 1500 м
[Sc Ac trans Ci fib]
+22.3 +15.4 65 +26 +28 жарко 1015.4 985.6 +17.6
07 16.06 С 6 28 км 6/1 800 м
[Cu Sc Ac trans]
+23.1 +16.9 68 +28 +30 душно 1015.5 985.8
08 16.06 С 5 22 км 8/5 900 м
[Cu Sc Ac trans]
+24.2 +17.1 65 +28 +30 душно 1015.9 986.3
09 16.06 С 5 22 км 9/6 700 м
[Cu Sc Ac trans]
+22.8 +17.8 73 +28 +30 душно 1016.6 986.8
10 16.06 С 3 10 км в посл. час гроза {ливн. осадки} 9/5 600 м
[Cb cap Ac As]
+21.9 +19.8 88 +28 +31 душно 1016.6 986.8
11 16.06 С 4 13 км 6/4 700 м
[Cb cap Ac trans Ci ing]
+23.7 +19.2 76 +29 +35 душно 1016.5 986.9
12 16.06 С 5 15 км {гроза, ливн. осадки} 8/5 700 м
[Cu Sc Ac trans Ci ing]
+23.0 +19.0 78 +29 +32 очень
душно
1017.5 987.8 1
13 16.06 С 7 15 км 8/4 600 м
[Cu Sc Ac trans]
+23.5 +18.0 71 +28 +29 душно 1016.9 987.2
14 16.06 С 5 15 км 8/8 700 м
[Cu Sc Ac cuf]
+22.7 +17.3 72 +28 +29 душно 1017.4 987.6

 

Местоположение метеостанции Острава (Чехия): широта 49.68 долгота 18.12 высота над уровнем моря 260 м.

В архиве по умолчанию представлена погода в Остраве за последнюю неделю. Архивные данные за месяц целиком и за предыдущие месяцы, начиная с января 2011 года, Вы можете получить, выбрав интересующий диапазон дат из раскрывающегося списка и нажав кнопку "Ввод!".


*Определитесь, кто Вы:
робот инопланетянин человек

Внимание! Время в таблицах - всемирное. Для получения местного времени необходимо прибавить поправку, которая равна 1 ч.

Смотрите также архив погоды в соседних городах и на ближайших метеорологических станциях:

Погода на Лысой Горе (Чехия) (28 км)
Погода в Хосталкова, Маруска (Чехия) (40 км)
Погода в Рацибуже (Польша) (42 км)
Погода в Червене (Чехия) (42 км)
Погода в Холесове (Чехия) (56 км)
Погода в Жилине (Словакия) (62 км)
Погода в Бельско-Бяла (Польша) (65 км)
Погода в Простеёве (Чехия) (76 км)
Погода в Луке (Чехия) (84 км)
Погода в Катовице (Польша) (89 км)

Пояснения к столбцам:

Ветер - указаны скорость ветра в м/с - средняя за 10 мин, порывы в срок и между сроками (в фигурных скобках) и направление, откуда дует ветер: С - северный, СВ - северо-восточный, В - восточный, ЮВ - юго-восточный, Ю - южный, ЮЗ - юго-западный, З - западный, СЗ - северо-западный.
Видимость - горизонтальная дальность видимости в метрах или километрах. При видимости от 1 до 10 км при отсутствии осадков обычно наблюдается дымка, при ухудшении видимости до 1 км и менее - туман. В сухую погоду видимость может ухудшаться дымом, пылью или мглою.
Явления - указаны атмосферные явления, наблюдавшиеся в срок или в последний час перед сроком; фигурными скобками обозначены явления, наблюдавшиеся между сроками (за 1-3 часа до срока); квадратными скобками обозначены град или гололедные отложения с указанием их диаметра в мм.
Облачность - указаны через наклонную черту общая и нижняя облачность в баллах и высота нижней границы облаков в метрах; квадратными скобками обозначены формы облаков: Ci - перистые, Cs - перисто-слоистые, Cc - перисто-кучевые, Ac - высококучевые, As - высокослоистые, Sc - слоисто-кучевые, Ns - слоисто-дождевые, Cu - кучевые, Cb - кучево-дождевые. Подробнее классификацию облаков см. в Атласе облаков (PDF).
T - Температура воздуха - температура, измеренная на высоте 2 м над землей.
Td - Температура точки росы - температура, при понижении до которой содержащийся в воздухе водяной пар достигнет насыщения.
f - Относительная влажность воздуха - влажноcть воздуха, измеренная на высоте 2 м над землей.
Te - Эффективная температура - температура, которую ощущает одетый по сезону человек в тени. Характеристика душности погоды. При расчете учитывается влияние влажности воздуха и скорости ветра на теплоощущения человека.
Tes - Эффективная температура на солнце - температура, которую ощущает человек, с поправкой на солнечный нагрев. Характеристика знойности погоды. Зависит от высоты солнца над горизонтом, облачности и скорости ветра. Ночью, в пасмурную погоду, а также при ветре 12 м/с и более поправка равна нулю.
P - Атмосферное давление - приведенное к уровню моря атмосферное давление.
Po - Атмосферное давление - измеренное на уровне метеостанции атмосферное давление.
Tmin - Минимальная температура - минимум температуры воздуха на высоте 2 м над землей.
Tmax - Максимальная температура - максимум температуры воздуха на высоте 2 м над землей.
R - Количество осадков - Количество выпавших осадков за период времени, мм. При наведении курсора мыши на число - период времени, за который выпало указанное количество осадков.
R24 - Количество осадков - Количество выпавших осадков за 24 часа, мм.
S - Снежный покров - Высота снежного покрова, см. При наведении курсора мыши на число - состояние снежного покрова и степень покрытия местности в баллах.